C&D Canal Bridge, Odessa DE USA current weather conditions

sailwx.info

Wind from 170 at 3 knots gusting 7

Air temperature 5.0° C
Dewpoint 1.4° C

Last reported at 2019-Dec-08 22:00 UTC.
Time now 2019-Dec-08 23:15 UTC

Location: N 39°33' W 075°39'.
View on Google Maps.

See reports from other nearby stations

  
Tides and Currents Weather Stations Pressure Air Temp Water Temp Dewpoint Dewpoint Depression Visibility Wind Speed Wind Dir Waves Ship Positions
date/time (UTC)wind fromknots sea level pressurealtimeterstation pressurevisibilityair tempwater tempwave heightnotes
2019-Dec-08 22:00 170 3 gusting 7 5.0
2019-Dec-08 21:50 160 5 gusting 8 4.6
2019-Dec-08 21:45 160 2 gusting 8 5.0
2019-Dec-08 21:40 165 3 gusting 8 5.1
2019-Dec-08 21:35 170 5 gusting 7 5.1
2019-Dec-08 21:30 165 4 gusting 9 5.2
2019-Dec-08 21:25 165 5 gusting 9 5.2
2019-Dec-08 21:20 160 2 gusting 9 5.2
2019-Dec-08 21:15 160 4 gusting 9 5.3
2019-Dec-08 21:10 175 4 gusting 8 5.5
2019-Dec-08 21:05 155 3 gusting 7 5.3
2019-Dec-08 21:00 155 4 gusting 8 5.6
2019-Dec-08 20:55 165 6 gusting 8 5.8
2019-Dec-08 20:50 180 6 gusting 11 5.8
2019-Dec-08 20:45 170 5 gusting 11 5.7
2019-Dec-08 20:40 145 5 gusting 10 6.0
2019-Dec-08 20:35 160 7 gusting 10 6.0
2019-Dec-08 20:30 175 6 gusting 11 6.0
2019-Dec-08 20:25 155 5 gusting 11 5.8
2019-Dec-08 20:20 275 6.0
2019-Dec-08 20:15 275 5.7
2019-Dec-08 20:10 280 6.0
2019-Dec-08 20:05 165 6 gusting 11 5.6
2019-Dec-08 20:00 165 8 gusting 11 5.8
2019-Dec-08 19:55 145 7 gusting 11 5.7
2019-Dec-08 19:50 155 7 gusting 11 6.1
2019-Dec-08 19:45 150 4 gusting 12 6.1
2019-Dec-08 19:40 165 7 gusting 12 5.8
2019-Dec-08 19:35 150 6 gusting 12 6.0
2019-Dec-08 19:30 170 6 gusting 11 6.1
2019-Dec-08 19:25 165 7 gusting 11 6.6
2019-Dec-08 19:20 165 4 gusting 10 6.8
2019-Dec-08 19:15 165 6 gusting 13 6.6
2019-Dec-08 19:10 145 8 gusting 13 6.6
2019-Dec-08 19:05 165 5 gusting 11 7.6
2019-Dec-08 19:00 215 5 gusting 10 7.2
2019-Dec-08 18:55 160 6 gusting 11 7.5
2019-Dec-08 18:50 230 6 gusting 12 7.6
2019-Dec-08 18:45 210 8 gusting 13 7.1
2019-Dec-08 18:40 185 9 gusting 13 7.1
2019-Dec-08 18:35 225 4 gusting 12 7.1
2019-Dec-08 18:30 220 9 gusting 12 7.3
2019-Dec-08 18:25 185 5 gusting 11 7.5
2019-Dec-08 18:20 150 5 gusting 11 7.5
2019-Dec-08 18:15 130 4 gusting 12 7.1
2019-Dec-08 18:10 155 7 gusting 12 7.1
2019-Dec-08 18:05 165 6 gusting 10 6.6
2019-Dec-08 18:00 170 6 gusting 11 6.5
2019-Dec-08 17:55 155 7 gusting 12 6.0
2019-Dec-08 17:50 155 6 gusting 11 6.1
2019-Dec-08 17:45 170 6 gusting 11 6.0
2019-Dec-08 17:40 175 7 gusting 12 6.6
2019-Dec-08 17:35 150 7 gusting 14 6.0
2019-Dec-08 17:30 150 6 gusting 14 6.2
2019-Dec-08 17:25 155 6 gusting 12 6.5
2019-Dec-08 17:20 175 5 gusting 12 6.5
2019-Dec-08 17:15 160 6 gusting 12 6.2
2019-Dec-08 17:10 145 6 gusting 13 6.1
2019-Dec-08 17:05 165 7 gusting 14 5.8
2019-Dec-08 17:00 170 9 gusting 14 6.0
2019-Dec-08 16:55 165 7 gusting 12 5.8
2019-Dec-08 16:50 180 8 gusting 12 5.6
2019-Dec-08 16:45 155 7 gusting 12 5.6
2019-Dec-08 16:40 185 6 gusting 11 5.6
2019-Dec-08 16:35 170 6 gusting 10 5.5
2019-Dec-08 16:30 185 6 gusting 10 5.7
2019-Dec-08 16:25 170 6 gusting 10 5.6
2019-Dec-08 16:20 145 6 gusting 11 5.7
2019-Dec-08 16:15 155 6 gusting 10 5.3
2019-Dec-08 16:10 165 7 gusting 10 4.7
2019-Dec-08 16:05 175 6 gusting 10 5.1
2019-Dec-08 16:00 180 4 gusting 8 4.3
2019-Dec-08 15:55 155 5 gusting 9 4.6
2019-Dec-08 15:50 175 4 gusting 9 4.5
2019-Dec-08 15:45 150 3 gusting 8 4.2
2019-Dec-08 15:40 135 4 gusting 8 4.1
2019-Dec-08 15:35 145 4 gusting 8 4.3
2019-Dec-08 15:30 165 3 gusting 7 3.6
2019-Dec-08 15:25 160 3 gusting 7 3.6
2019-Dec-08 15:20 175 4 gusting 7 3.5
2019-Dec-08 15:15 155 3 gusting 7 3.1
2019-Dec-08 15:10 165 3 gusting 6 3.1
2019-Dec-08 15:05 155 4 gusting 6 3.1
2019-Dec-08 15:00 140 4 gusting 7 3.2
2019-Dec-08 14:55 175 3 gusting 7 3.1
2019-Dec-08 14:50 160 3 gusting 6 2.7
2019-Dec-08 14:45 140 2 gusting 6 3.0
2019-Dec-08 14:40 160 2 gusting 6 2.9
2019-Dec-08 14:35 120 4 gusting 6 2.6
2019-Dec-08 14:30 155 2 gusting 6 2.4
2019-Dec-08 14:25 160 4 gusting 5 2.1
2019-Dec-08 14:20 130 4 gusting 5 1.9
2019-Dec-08 14:15 120 4 gusting 5 1.7
2019-Dec-08 14:10 120 2 gusting 4 1.6
2019-Dec-08 14:05 120 3 gusting 4 1.2
2019-Dec-08 14:00 115 3 gusting 5 1.4
2019-Dec-08 13:55 140 3 gusting 5 1.1
2019-Dec-08 13:50 115 2 gusting 5 0.7
2019-Dec-08 13:45 125 0 gusting 5 0.6
2019-Dec-08 13:40 120 0 gusting 6 0.5
2019-Dec-08 13:35 115 2 gusting 6 0.1
2019-Dec-08 13:30 115 3 gusting 6 0.2
2019-Dec-08 13:25 115 1 gusting 6 -0.3
2019-Dec-08 13:20 120 2 gusting 4 -0.5
2019-Dec-08 13:15 125 -0.5
2019-Dec-08 13:10 130 -0.8
2019-Dec-08 13:05 140 -1.0
2019-Dec-08 13:00 135 -1.5
2019-Dec-08 12:55 125 -1.9
2019-Dec-08 12:50 125 -2.1
2019-Dec-08 12:45 125 -2.3
2019-Dec-08 12:40 120 -2.4
2019-Dec-08 12:35 120 0 gusting 5 -2.4
2019-Dec-08 12:30 110 -2.8
2019-Dec-08 12:25 115 -2.9
2019-Dec-08 12:20 100 -3.0
2019-Dec-08 12:15 110 -3.0
2019-Dec-08 12:10 110 -2.9
2019-Dec-08 12:05 105 -2.9
2019-Dec-08 12:00 100 -2.9
2019-Dec-08 11:55 100 -2.9
2019-Dec-08 11:50 100 -2.9
2019-Dec-08 11:45 110 -2.8
2019-Dec-08 11:40 095 -2.9
2019-Dec-08 11:35 100 -2.9
2019-Dec-08 11:30 105 -2.8
2019-Dec-08 11:25 120 -2.4
2019-Dec-08 11:20 140 -2.4
2019-Dec-08 11:15 125 -2.4
2019-Dec-08 11:10 120 -2.4
2019-Dec-08 11:05 110 -2.6
2019-Dec-08 11:00 110 -2.8
2019-Dec-08 10:55 110 -2.9
2019-Dec-08 10:50 110 -2.8
2019-Dec-08 10:45 105 -2.5
2019-Dec-08 10:40 130 -2.4
2019-Dec-08 10:35 115 -2.6
2019-Dec-08 10:30 120 -2.4
2019-Dec-08 10:20 125 -2.8
2019-Dec-08 10:15 115 -2.5
2019-Dec-08 10:10 135 -2.0
2019-Dec-08 10:05 145 -1.9
2019-Dec-08 09:55 100 -2.8
2019-Dec-08 09:50 115 -2.4
2019-Dec-08 09:45 115 -2.3
2019-Dec-08 09:40 115 -2.1
2019-Dec-08 09:35 125 -1.9
2019-Dec-08 09:30 110 -2.1
2019-Dec-08 09:25 135 -2.1
2019-Dec-08 09:20 115 -2.1
2019-Dec-08 09:15 115 -2.1
2019-Dec-08 09:10 110 -2.4
2019-Dec-08 09:05 105 1 gusting 2 -2.4
2019-Dec-08 09:00 105 -2.3
2019-Dec-08 08:55 105 -2.1
2019-Dec-08 08:50 105 -2.0
2019-Dec-08 08:45 105 -1.9
2019-Dec-08 08:40 110 -2.0
2019-Dec-08 08:35 105 -1.9
2019-Dec-08 08:30 110 -2.1
2019-Dec-08 08:25 110 -2.3
2019-Dec-08 08:20 115 0 gusting 2 -2.3
2019-Dec-08 08:15 115 0 gusting 2 -1.9
2019-Dec-08 08:10 120 -2.0
2019-Dec-08 08:05 110 -2.1
2019-Dec-08 08:00 105 -2.3
2019-Dec-08 07:55 110 -2.1
2019-Dec-08 07:50 115 -2.1
2019-Dec-08 07:45 110 0 gusting 1 -2.0
2019-Dec-08 07:40 110 -1.9
2019-Dec-08 07:35 110 -2.0
2019-Dec-08 07:30 115 -1.9
2019-Dec-08 07:25 120 -1.8
2019-Dec-08 07:20 120 -2.0
2019-Dec-08 07:15 120 -1.9
2019-Dec-08 07:10 120 -1.9
2019-Dec-08 07:05 120 -2.0
2019-Dec-08 07:00 125 0 gusting 2 -1.9
2019-Dec-08 06:55 125 1 gusting 6 -1.9
2019-Dec-08 06:50 125 1 gusting 6 -1.9
2019-Dec-08 06:45 125 0 gusting 1 -1.8
2019-Dec-08 06:40 125 0 gusting 1 -1.8
2019-Dec-08 06:35 135 0 gusting 1 -1.5
2019-Dec-08 06:30 140 0 gusting 1 -1.5
2019-Dec-08 06:25 135 -1.3
2019-Dec-08 06:20 125 -1.3
2019-Dec-08 06:15 125 0 gusting 1 -1.4
2019-Dec-08 06:10 120 -1.4
2019-Dec-08 06:05 115 -1.3
2019-Dec-08 06:00 120 -1.3
2019-Dec-08 05:55 105 -1.4
2019-Dec-08 05:50 110 -1.4
2019-Dec-08 05:45 110 0 gusting 1 -1.4
2019-Dec-08 05:40 110 0 gusting 1 -1.3
2019-Dec-08 05:35 105 0 gusting 1 -1.3
2019-Dec-08 05:30 115 0 gusting 1 -1.4
2019-Dec-08 05:25 110 0 gusting 1 -1.1
2019-Dec-08 05:20 100 0 gusting 1 -1.1
2019-Dec-08 05:15 100 0 gusting 4 -1.3
2019-Dec-08 05:10 105 0 gusting 6 -1.4
2019-Dec-08 05:05 110 2 gusting 6 -1.4
2019-Dec-08 05:00 115 1 gusting 7 -1.0
2019-Dec-08 04:55 115 4 gusting 7 -0.7
2019-Dec-08 04:50 120 3 gusting 6 -0.7
2019-Dec-08 04:45 120 1 gusting 4 -0.7
2019-Dec-08 04:40 110 2 gusting 4 -0.7
2019-Dec-08 04:35 110 4 gusting 4 -0.7
2019-Dec-08 04:30 110 3 gusting 4 -0.7
2019-Dec-08 04:25 115 3 gusting 4 -0.5
2019-Dec-08 04:20 100 1 gusting 3 -0.8
2019-Dec-08 04:15 090 3 gusting 3 -0.9
2019-Dec-08 04:10 090 1 gusting 3 -0.7
2019-Dec-08 04:05 080 2 gusting 4 -0.8
2019-Dec-08 04:00 075 3 gusting 4 -0.7
2019-Dec-08 03:55 075 2 gusting 3 -0.9
2019-Dec-08 03:50 070 3 gusting 3 -0.9
2019-Dec-08 03:45 070 1 gusting 2 -0.9
2019-Dec-08 03:40 065 0 gusting 1 -0.9
2019-Dec-08 03:35 055 0 gusting 0 -0.8
2019-Dec-08 03:30 040 0 gusting 0 -0.8
2019-Dec-08 03:25 040 -1.0
2019-Dec-08 03:20 045 -1.0
2019-Dec-08 03:15 020 0 gusting 2 -0.1
2019-Dec-08 03:10 025 0 gusting 5 0.6
2019-Dec-08 03:05 025 1 gusting 5 0.6
2019-Dec-08 03:00 025 4 gusting 5 0.5
2019-Dec-08 02:55 020 4 gusting 5 0.3
2019-Dec-08 02:50 015 4 gusting 5 0.6
2019-Dec-08 02:45 015 3 gusting 5 0.8
2019-Dec-08 02:40 010 1 gusting 2 0.8
2019-Dec-08 02:35 030 0 gusting 1 0.5
2019-Dec-08 02:30 050 0 gusting 1 0.6
2019-Dec-08 02:25 110 0.3
2019-Dec-08 02:20 075 -0.3
2019-Dec-08 02:15 115 -0.9
2019-Dec-08 02:10 175 -0.9
2019-Dec-08 02:05 300 -0.0
2019-Dec-08 02:00 335 0.1
2019-Dec-08 01:55 030 0.3
2019-Dec-08 01:45 015 0.3
2019-Dec-08 01:40 310 0.6
2019-Dec-08 01:35 010 2.0
2019-Dec-08 01:30 005 2.1
2019-Dec-08 01:25 035 2.6
2019-Dec-08 01:20 315 2.5
2019-Dec-08 01:15 350 0 gusting 2 2.6
2019-Dec-08 01:10 010 2.6
2019-Dec-08 01:05 030 2.6
2019-Dec-08 01:00 355 2.6
2019-Dec-08 00:55 310 3.0
2019-Dec-08 00:50 350 2.7
2019-Dec-08 00:45 005 0 gusting 2 2.7
2019-Dec-08 00:40 005 2.7
2019-Dec-08 00:35 010 2.7
2019-Dec-08 00:30 2.7
2019-Dec-08 00:25 010 0 gusting 1 2.7
2019-Dec-08 00:20 015 2.6
2019-Dec-08 00:15 015 2.7
2019-Dec-08 00:10 355 2.6
2019-Dec-08 00:05 075 2.6
2019-Dec-08 00:00 015 2.4
2019-Dec-07 23:55 010 3.0
2019-Dec-07 23:50 330 2.7
2019-Dec-07 23:45 235 2.9
2019-Dec-07 23:40 150 3.1
2019-Dec-07 23:35 330 3.5
2019-Dec-07 23:30 245 0 gusting 3 3.4
2019-Dec-07 23:25 355 0 gusting 3 3.4
2019-Dec-07 23:20 005 0 gusting 3 3.4
2019-Dec-07 23:15 3.1
2019-Dec-07 23:10 010 2 gusting 4 3.1
2019-Dec-07 23:05 005 2 gusting 4 3.1
2019-Dec-07 23:00 350 0 gusting 3 3.6
2019-Dec-07 22:55 305 0 gusting 3 3.6
2019-Dec-07 22:50 070 3.6
2019-Dec-07 22:45 010 0 gusting 3 3.6
2019-Dec-07 22:40 005 0 gusting 3 3.6
2019-Dec-07 22:35 3.6
2019-Dec-07 22:30 015 2 gusting 3 3.4
2019-Dec-07 22:25 020 0 gusting 2 3.6
2019-Dec-07 22:20 355 3.6
2019-Dec-07 22:15 025 3.6
2019-Dec-07 22:10 320 3.5
2019-Dec-07 22:05 015 3.7
2019-Dec-07 22:00 025 3.7
2019-Dec-07 21:55 045 3.9
2019-Dec-07 21:50 030 4.0
2019-Dec-07 21:45 185 4.1
2019-Dec-07 21:40 345 0 gusting 5 4.3
2019-Dec-07 21:35 340 2 gusting 5 4.7
2019-Dec-07 21:30 345 4 gusting 5 4.7
2019-Dec-07 21:25 330 0 gusting 7 4.7
2019-Dec-07 21:20 340 0 gusting 7 5.0
2019-Dec-07 21:15 335 4 gusting 8 5.0
2019-Dec-07 21:10 010 6 gusting 8 4.5
2019-Dec-07 21:05 5.1
2019-Dec-07 21:00 345 4 gusting 8 5.3
2019-Dec-07 20:55 350 3 gusting 7 5.5
2019-Dec-07 20:50 330 3 gusting 7 5.5
2019-Dec-07 20:45 310 4 gusting 7 5.5
2019-Dec-07 20:40 330 6 gusting 8 5.5
2019-Dec-07 20:35 355 5 gusting 8 5.6
2019-Dec-07 20:30 005 4 gusting 7 5.5
2019-Dec-07 20:25 335 4 gusting 9 5.6
2019-Dec-07 20:20 350 6 gusting 11 5.6
2019-Dec-07 20:15 340 6 gusting 7 5.6
2019-Dec-07 20:10 215 0 gusting 9 5.6
2019-Dec-07 20:05 350 5.7
2019-Dec-07 20:00 345 5.6
2019-Dec-07 19:55 350 5.3
2019-Dec-07 19:50 215 5.5
2019-Dec-07 19:45 350 5.8
2019-Dec-07 19:40 355 5.7
2019-Dec-07 19:35 345 5.5
2019-Dec-07 19:30 355 5.7
2019-Dec-07 19:25 355 5.6
2019-Dec-07 19:20 215 5.6
2019-Dec-07 19:15 215 5.3
2019-Dec-07 19:10 355 5.8
2019-Dec-07 19:05 220 5.6
2019-Dec-07 19:00 355 5.7
2019-Dec-07 18:55 215 5.6
2019-Dec-07 18:50 220 5.2
2019-Dec-07 18:45 345 5.6
2019-Dec-07 18:40 215 5.6
2019-Dec-07 18:35 355 5.6
2019-Dec-07 18:30 355 5.3
2019-Dec-07 18:25 230 5.6
2019-Dec-07 18:20 350 4.8
2019-Dec-07 18:15 340 4.8
2019-Dec-07 18:10 355 5.0
2019-Dec-07 18:05 350 4.7
2019-Dec-07 18:00 345 9 gusting 13 5.1
2019-Dec-07 17:55 010 5 gusting 13 5.1
2019-Dec-07 17:50 340 6 gusting 13 5.1
2019-Dec-07 17:45 345 8 gusting 13 5.0
2019-Dec-07 17:40 340 6 gusting 11 4.6
2019-Dec-07 17:35 015 5 gusting 10 4.1
2019-Dec-07 17:30 005 6 gusting 12 4.6
2019-Dec-07 17:25 345 8 gusting 12 4.2
2019-Dec-07 17:20 345 6 gusting 10 4.7
2019-Dec-07 17:15 320 5 gusting 9 5.1
2019-Dec-07 17:10 005 4 gusting 10 4.8
2019-Dec-07 17:05 005 3 gusting 11 4.5
2019-Dec-07 17:00 335 6 gusting 11 4.5
2019-Dec-07 16:55 015 3 gusting 8 4.6
2019-Dec-07 16:50 335 2 gusting 10 4.6
2019-Dec-07 16:45 330 6 gusting 10 4.3
2019-Dec-07 16:40 330 2 gusting 11 4.7
2019-Dec-07 16:35 340 4 gusting 11 5.1
2019-Dec-07 16:30 355 4 gusting 10 4.6
2019-Dec-07 16:25 335 6 gusting 9 5.0
2019-Dec-07 16:20 325 6 gusting 8 5.0
2019-Dec-07 16:15 345 1 gusting 8 5.1
2019-Dec-07 16:10 030 0 gusting 8 5.7
2019-Dec-07 16:05 330 3 gusting 8 5.1
2019-Dec-07 16:00 015 1 gusting 7 5.1
2019-Dec-07 15:55 315 4 gusting 7 5.0
2019-Dec-07 15:50 345 1 gusting 5 4.6
2019-Dec-07 15:45 285 2 gusting 5 4.6
2019-Dec-07 15:40 315 4.3
2019-Dec-07 15:35 4.3
2019-Dec-07 15:30 330 4.5
2019-Dec-07 15:25 4.1
2019-Dec-07 15:20 350 6 gusting 8 3.9
2019-Dec-07 15:15 350 3.9
2019-Dec-07 15:10 330 0 gusting 4 4.0
2019-Dec-07 15:05 310 2 gusting 5 3.6
2019-Dec-07 15:00 320 2 gusting 5 3.6
2019-Dec-07 14:55 315 2 gusting 5 3.6
2019-Dec-07 14:50 330 2 gusting 5 3.6
2019-Dec-07 14:45 330 3 gusting 5 3.5
2019-Dec-07 14:40 3.6
2019-Dec-07 14:35 3.4
2019-Dec-07 14:30 330 3 gusting 5 3.1
2019-Dec-07 14:25 335 3.1
2019-Dec-07 14:20 335 2.6
2019-Dec-07 14:15 330 2.4
2019-Dec-07 14:10 295 2 gusting 4 2.1
2019-Dec-07 14:05 300 3 gusting 4 1.5
2019-Dec-07 14:00 300 2 gusting 4 1.6
2019-Dec-07 13:55 295 1 gusting 4 1.5
2019-Dec-07 13:50 295 1 gusting 3 1.4
2019-Dec-07 13:45 295 1 gusting 3 1.2
2019-Dec-07 13:40 305 2 gusting 4 1.2
2019-Dec-07 13:35 310 3 gusting 4 1.0
2019-Dec-07 13:30 310 0 gusting 3 0.8
2019-Dec-07 13:25 280 2 gusting 3 1.1
2019-Dec-07 13:20 275 2 gusting 3 0.7
2019-Dec-07 13:15 280 2 gusting 2 0.6
2019-Dec-07 13:10 285 1 gusting 2 0.6
2019-Dec-07 13:05 280 2 gusting 3 0.6
2019-Dec-07 13:00 315 1 gusting 3 1.1
2019-Dec-07 12:55 335 0 gusting 3 1.4
2019-Dec-07 12:50 340 1 gusting 3 1.4
2019-Dec-07 12:45 345 2 gusting 3 1.1
2019-Dec-07 12:40 335 2 gusting 3 1.0
2019-Dec-07 12:35 335 2 gusting 4 0.6
2019-Dec-07 12:30 330 2 gusting 4 0.6
2019-Dec-07 12:25 315 2 gusting 4 0.7
2019-Dec-07 12:20 330 2 gusting 4 1.0
2019-Dec-07 12:15 325 2 gusting 5 1.1
2019-Dec-07 12:10 330 3 gusting 5 1.1
2019-Dec-07 12:05 335 3 gusting 5 1.1
2019-Dec-07 12:00 345 3 gusting 5 1.1
2019-Dec-07 11:55 330 2 gusting 4 1.0
2019-Dec-07 11:50 330 2 gusting 4 1.0
2019-Dec-07 11:45 325 2 gusting 4 0.8
2019-Dec-07 11:40 325 1 gusting 3 1.1
2019-Dec-07 11:35 350 2 gusting 3 1.1
2019-Dec-07 11:30 320 2 gusting 3 1.1
2019-Dec-07 11:25 315 2 gusting 3 1.2
2019-Dec-07 11:20 315 0 gusting 2 1.2
2019-Dec-07 11:15 005 0 gusting 3 1.5
2019-Dec-07 11:10 1.4
2019-Dec-07 11:05 005 0 gusting 3 1.2
2019-Dec-07 11:00 020 1 gusting 3 1.2
2019-Dec-07 10:55 1.4
2019-Dec-07 10:50 160 1.4
2019-Dec-07 10:45 010 0 gusting 4 1.6
2019-Dec-07 10:40 005 1 gusting 4 1.5
2019-Dec-07 10:35 015 0 gusting 3 1.5
2019-Dec-07 10:30 345 0 gusting 4 1.5
2019-Dec-07 10:25 005 2 gusting 4 1.5
2019-Dec-07 10:20 1.6
2019-Dec-07 10:15 015 1 gusting 4 1.2
2019-Dec-07 10:10 010 2 gusting 3 1.1
2019-Dec-07 10:05 015 2 gusting 3 1.4
2019-Dec-07 10:00 025 0 gusting 3 1.4
2019-Dec-07 09:55 035 1 gusting 3 1.1
2019-Dec-07 09:50 040 2 gusting 3 1.1
2019-Dec-07 09:45 025 2 gusting 6 1.1
2019-Dec-07 09:40 030 3 gusting 6 1.4
2019-Dec-07 09:35 005 3 gusting 6 1.5
2019-Dec-07 09:30 1.5
2019-Dec-07 09:25 015 4 gusting 6 1.4
2019-Dec-07 09:20 020 1 gusting 6 1.4
2019-Dec-07 09:15 015 2 gusting 5 1.5
2019-Dec-07 09:10 015 2 gusting 5 1.6
2019-Dec-07 09:05 020 0 gusting 5 1.7
2019-Dec-07 09:00 005 0 gusting 5 2.1
2019-Dec-07 08:55 005 1 gusting 6 2.4
2019-Dec-07 08:50 335 3 gusting 6 2.5
2019-Dec-07 08:45 340 2 gusting 6 2.4
2019-Dec-07 08:40 005 4 gusting 7 2.6
2019-Dec-07 08:35 005 3 gusting 7 2.6
2019-Dec-07 08:30 005 4 gusting 8 2.5
2019-Dec-07 08:25 010 4 gusting 8 2.4
2019-Dec-07 08:20 005 5 gusting 8 2.4
2019-Dec-07 08:15 015 5 gusting 7 2.5
2019-Dec-07 08:10 005 4 gusting 7 2.7
2019-Dec-07 08:05 005 4 gusting 7 3.0
2019-Dec-07 08:00 005 3 gusting 6 3.0
2019-Dec-07 07:55 005 3 gusting 6 2.6
2019-Dec-07 07:50 005 4 gusting 6 2.7
2019-Dec-07 07:45 005 3 gusting 6 2.6
2019-Dec-07 07:40 010 4 gusting 6 2.9
2019-Dec-07 07:35 020 4 gusting 7 2.9
2019-Dec-07 07:30 005 5 gusting 7 3.1
2019-Dec-07 07:25 015 5 gusting 7 3.2
2019-Dec-07 07:20 005 5 gusting 7 3.1
2019-Dec-07 07:15 015 4 gusting 7 3.1
2019-Dec-07 07:10 015 3 gusting 6 3.4
2019-Dec-07 07:05 015 4 gusting 5 3.2
2019-Dec-07 07:00 015 2 gusting 5 3.5
2019-Dec-07 06:55 010 4 gusting 6 3.6
2019-Dec-07 06:50 015 4 gusting 6 3.5
2019-Dec-07 06:45 010 3 gusting 6 3.2
2019-Dec-07 06:40 030 3 gusting 7 3.6
2019-Dec-07 06:35 020 4 gusting 7 3.5
2019-Dec-07 06:30 020 3 gusting 8 3.6
2019-Dec-07 06:25 010 4 gusting 8 3.9
2019-Dec-07 06:20 030 4 gusting 8 3.7
2019-Dec-07 06:15 025 4 gusting 7 3.6
2019-Dec-07 06:10 030 4 gusting 7 3.7
2019-Dec-07 06:05 050 3 gusting 7 4.1
2019-Dec-07 06:00 035 5 gusting 8 4.1
2019-Dec-07 05:55 030 4 gusting 10 4.1
2019-Dec-07 05:50 030 5 gusting 10 4.2
2019-Dec-07 05:45 015 5 gusting 10 4.6
2019-Dec-07 05:40 010 7 gusting 10 4.5
2019-Dec-07 05:35 025 4 gusting 7 4.5
2019-Dec-07 05:30 215 4.6
2019-Dec-07 05:25 035 1 gusting 7 4.6
2019-Dec-07 05:20 020 3 gusting 9 4.8
2019-Dec-07 05:15 030 5 gusting 10 4.8
2019-Dec-07 05:10 025 6 gusting 11 5.1
2019-Dec-07 05:05 025 7 gusting 11 5.2
2019-Dec-07 05:00 040 6 gusting 11 5.2
2019-Dec-07 04:55 025 7 gusting 13 5.3
2019-Dec-07 04:50 005 7 gusting 13 5.6
2019-Dec-07 04:45 030 6 gusting 11 5.7
2019-Dec-07 04:40 025 6 gusting 11 6.1
2019-Dec-07 04:35 020 1 gusting 13 6.6
2019-Dec-07 04:30 355 4 gusting 13 7.1
2019-Dec-07 04:25 020 1 gusting 13 7.2
2019-Dec-07 04:20 030 4 gusting 13 7.2
2019-Dec-07 04:15 010 7 gusting 16 7.3
2019-Dec-07 04:10 025 7 gusting 16 7.5
2019-Dec-07 04:05 010 6 gusting 17 7.6
2019-Dec-07 04:00 030 6 gusting 17 7.6
2019-Dec-07 03:55 025 5 gusting 17 8.1
2019-Dec-07 03:50 350 12 gusting 17 8.1
2019-Dec-07 03:45 355 5 gusting 14 8.3
2019-Dec-07 03:40 010 7 gusting 16 8.3
2019-Dec-07 03:35 355 9 gusting 16 8.3
2019-Dec-07 03:30 355 8 gusting 15 8.5
2019-Dec-07 03:25 010 10 gusting 15 8.3
2019-Dec-07 03:20 355 3 gusting 13 8.3
2019-Dec-07 03:15 010 2 gusting 13 8.6
2019-Dec-07 03:10 010 6 gusting 11 8.6
2019-Dec-07 03:05 345 4 gusting 19 8.6
2019-Dec-07 03:00 015 6 gusting 19 8.7
2019-Dec-07 02:55 015 6 gusting 15 8.8
2019-Dec-07 02:50 010 6 gusting 13 8.8
2019-Dec-07 02:45 010 6 gusting 13 9.1
2019-Dec-07 02:40 015 7 gusting 12 9.2
2019-Dec-07 02:35 010 2 gusting 11 9.3
2019-Dec-07 02:30 345 3 gusting 10 9.5
2019-Dec-07 02:25 010 5 gusting 10 9.5
2019-Dec-07 02:20 015 2 gusting 11 9.5
2019-Dec-07 02:15 015 4 gusting 11 9.3
2019-Dec-07 02:10 015 3 gusting 10 9.3
2019-Dec-07 02:05 020 0 gusting 9 9.2
2019-Dec-07 02:00 030 3 gusting 8 9.5
2019-Dec-07 01:55 330 2 gusting 8 10.2
2019-Dec-07 01:50 295 2 gusting 9 10.1
2019-Dec-07 01:45 310 3 gusting 9 10.0
2019-Dec-07 01:40 325 3 gusting 11 9.8
2019-Dec-07 01:35 310 5 gusting 11 9.8
2019-Dec-07 01:30 300 3 gusting 9 9.7
2019-Dec-07 01:25 305 4 gusting 9 9.7
2019-Dec-07 01:20 300 1 gusting 8 9.7
2019-Dec-07 01:15 295 3 gusting 7 9.6
2019-Dec-07 01:10 300 0 gusting 3 9.6
2019-Dec-07 01:05 290 1 gusting 3 9.6
2019-Dec-07 01:00 300 0 gusting 7 9.6
2019-Dec-07 00:55 295 2 gusting 7 9.6
2019-Dec-07 00:50 300 1 gusting 8 9.6
2019-Dec-07 00:45 285 2 gusting 8 9.6
2019-Dec-07 00:40 290 2 gusting 10 9.6
2019-Dec-07 00:35 285 3 gusting 10 9.6
2019-Dec-07 00:30 285 5 gusting 8 9.6
2019-Dec-07 00:25 290 3 gusting 10 9.6
2019-Dec-07 00:20 285 7 gusting 10 9.7
2019-Dec-07 00:15 290 6 gusting 12 9.7
2019-Dec-07 00:10 290 6 gusting 12 9.7
2019-Dec-07 00:05 285 6 gusting 10 9.7
2019-Dec-07 00:00 285 5 gusting 11 9.7
2019-Dec-06 23:55 290 5 gusting 11 9.8
2019-Dec-06 23:50 285 7 gusting 10 9.8
2019-Dec-06 23:45 280 4 gusting 10 9.8
2019-Dec-06 23:40 280 4 gusting 10 10.0
2019-Dec-06 23:35 280 5 gusting 9 9.8
2019-Dec-06 23:30 305 2 gusting 8 10.0
2019-Dec-06 23:25 295 1 gusting 10 10.1
2019-Dec-06 23:20 290 3 gusting 10 10.0
2019-Dec-06 23:15 300 1 gusting 6 10.1
2019-Dec-06 23:10 295 0 gusting 8 10.1
2019-Dec-06 23:05 290 1 gusting 11 9.8
2019-Dec-06 23:00 280 4 gusting 11 9.7